Lanai City, HI

9:11 AM HST on February 10, 2016 (GMT -1000)
Lanai City

Weather History for PHNY - March, 2013

Change the Weather History Date:

Sunday, March 31, 2013

  Actual Average Record
Temperature  
Mean Temperature 67 °F -  
Max Temperature 75 °F 77 °F 82 °F (2015)
Min Temperature 59 °F 59 °F 56 °F (1992)
Cooling Degree Days 2    
Growing Degree Days 17 (Base 50)    
Moisture  
Dew Point 54 °F    
Average Humidity 67    
Maximum Humidity 93    
Minimum Humidity 41    
Precipitation  
Precipitation 0.00 in - - ()
Sea Level Pressure  
Sea Level Pressure 30.02 in    
Wind  
Wind Speed 12 mph (NNW)    
Max Wind Speed 18 mph    
Max Gust Speed 29 mph    
Visibility 10 miles    
Events      
Averages and records for this station are not official NWS values.
T = Trace of Precipitation, MM = Missing Value Source: NWS Daily Summary

Daily Weather History Graph

Daily Weather History Graph

Search for Another Location

Airport or City:

Trip Planner

Search our weather history database for the weather conditions in past years. The results will help you decide how hot, cold, wet, or windy it might be!

Date:

Astronomy

Mar. 31, 2013 Rise Set
Actual Time 6:21 AM HST 6:42 PM HST
Civil Twilight 5:59 AM HST 7:04 PM HST
Nautical Twilight 5:33 AM HST 7:30 PM HST
Astronomical Twilight 5:07 AM HST 7:56 PM HST
Moon 11:29 PM HST (3/31) 9:52 AM HST (3/31)
Length of Visible Light 13h 05m
Length of Day
12h 20m
Waning Gibbous, 75% of the Moon is Illuminated
Mar 31
Waning Gibbous
Apr 2
Last Quarter
Apr 9
New
Apr 18
First Quarter
Apr 25
Full

Hourly Weather History & Observations

Time (HST) Temp. Dew Point Humidity Pressure Visibility Wind Dir Wind Speed Gust Speed Precip Events Conditions
12:56 AM 63.0 °F 59.9 °F 90% 30.00 in 10.0 mi NE 6.9 mph - N/A   Clear
1:56 AM 63.0 °F 61.0 °F 93% 30.00 in 10.0 mi North 10.4 mph - N/A   Clear
2:56 AM 61.9 °F 57.9 °F 87% 29.99 in 10.0 mi North 13.8 mph - N/A   Partly Cloudy
3:26 AM 62.6 °F 57.2 °F 82% 30.03 in 10.0 mi North 16.1 mph 21.9 mph N/A   Mostly Cloudy
3:56 AM 61.9 °F 55.9 °F 81% 29.99 in 10.0 mi North 17.3 mph 23.0 mph N/A   Mostly Cloudy
4:04 AM 62.6 °F 55.4 °F 77% 30.03 in 10.0 mi North 18.4 mph 24.2 mph N/A   Mostly Cloudy
4:56 AM 62.6 °F 53.6 °F 72% 30.05 in 10.0 mi North 13.8 mph - N/A   Mostly Cloudy
5:56 AM 61.0 °F 52.0 °F 72% 30.02 in 10.0 mi North 16.1 mph 23.0 mph N/A   Clear
6:56 AM 61.9 °F 52.9 °F 72% 30.04 in 10.0 mi North 17.3 mph 28.8 mph N/A   Clear
7:56 AM 64.9 °F 52.9 °F 65% 30.04 in 10.0 mi North 13.8 mph - N/A   Clear
8:56 AM 70.0 °F 54.0 °F 57% 30.05 in 10.0 mi North 10.4 mph - N/A   Clear
9:56 AM 72.9 °F 54.0 °F 51% 30.05 in 10.0 mi Variable 3.5 mph - N/A   Scattered Clouds
10:56 AM 73.4 °F 55.4 °F 53% 30.09 in 10.0 mi WNW 11.5 mph 18.4 mph N/A   Scattered Clouds
11:56 AM 74.8 °F 54.9 °F 50% 30.04 in 10.0 mi NNW 11.5 mph 20.7 mph N/A   Partly Cloudy
12:56 PM 75.9 °F 54.0 °F 46% 30.02 in 10.0 mi NW 12.7 mph 19.6 mph N/A   Clear
1:56 PM 75.2 °F 50.0 °F 41% 30.04 in 10.0 mi WNW 15.0 mph 23.0 mph N/A   Clear
2:56 PM 73.9 °F 50.9 °F 44% 29.98 in 10.0 mi WNW 13.8 mph 20.7 mph N/A   Clear
3:56 PM 72.9 °F 50.9 °F 46% 29.97 in 10.0 mi NW 16.1 mph 28.8 mph N/A   Clear
4:56 PM 71.6 °F 51.8 °F 50% 30.01 in 10.0 mi NNW 13.8 mph 23.0 mph N/A   Clear
5:56 PM 65.8 °F 54.0 °F 65% 29.98 in 10.0 mi NNW 15.0 mph - N/A   Partly Cloudy
6:56 PM 61.9 °F 52.9 °F 72% 30.00 in 10.0 mi North 13.8 mph - N/A   Clear
7:56 PM 61.0 °F 52.9 °F 75% 30.01 in 10.0 mi NNW 12.7 mph - N/A   Clear
8:56 PM 61.0 °F 52.0 °F 72% 30.01 in 10.0 mi North 12.7 mph 20.7 mph N/A   Clear
9:56 PM 59.9 °F 52.0 °F 75% 30.02 in 10.0 mi NNW 12.7 mph - N/A   Clear
10:56 PM 59.9 °F 50.9 °F 72% 30.01 in 10.0 mi North 12.7 mph - N/A   Clear
11:56 PM 59.9 °F 52.0 °F 75% 29.99 in 10.0 mi NNW 12.7 mph - N/A   Clear